User: anonymous   Login
Location: Az?znagar
(16.8373°N, 80.5091°E)
Time: 04:28:07
(UTC+00:00)
Language:

Nadezhda 4 Rocket - Orbit

View from above orbital plane
View from above orbital plane
View from above satellite
View from above satellite

Ground track
Ground track

The orbit data is extracted from the following two-line orbital elements,

1 23180U 94041B   22148.39952560  .00000047  00000-0  31555-4 0  9992
2 23180  82.9487  26.9400 0028423 197.5747 335.5352 13.78045110401241
Epoch (UTC): 28 May 2022 09:35:19
Eccentricity: 0.0028423
inclination: 82.9487°
perigee height: 950 km
apogee height: 992 km
right ascension of ascending node: 26.9400°
argument of perigee: 197.5747°
revolutions per day: 13.78045110
mean anomaly at epoch: 335.5352°
orbit number at epoch: 40124

The dashed part of the orbit path shows where the satellite is in the earth's shadow,  

DLR